Location: Date Creek
(34.2167°N, 113.0301°W)
Time: 14:22:27
(UTC-07:00)

OTV 5 (USA 277) - Visible Passes

Search period start: 19 April 2018 00:00
Search period end: 29 April 2018 00:00
Orbit: 350 x 361 km, 54.5° (Epoch: 18 April)

Date Brightness Start Highest point End Pass type
(mag) Time Alt. Az. Time Alt. Az. Time Alt. Az.
19 Apr ? 20:41:32 10° WNW 20:42:39 12° NW 20:43:46 10° NNW visible
20 Apr ? 19:32:08 10° WSW 19:34:51 31° NW 19:37:34 10° NNE visible
21 Apr ? 20:02:10 10° NW 20:02:43 10° NNW 20:03:15 10° NNW visible
